Location: Rogalle
(42.8890°N, 1.1916°E)
Time: 21:40:28
(UTC+00:00)

Daily predictions for brighter satellites

Satellite Brightness Start Highest point End
(mag) Time Altitude Azimuth Time Altitude Azimuth Time Altitude Azimuth
Cosmos 2266 Rocket 4.0 16:44:43 10° N 16:50:45 57° ENE 16:56:40 10° SSE
Cosmos 1606 Rocket 4.0 16:46:48 10° SSE 16:50:55 40° E 16:55:04 10° NNE
Cosmos 1503 Rocket 4.1 16:47:54 10° SSW 16:53:08 83° WNW 16:58:22 10° NNE
EXPRESS MD2 3.4 16:53:57 10° SSW 16:56:01 30° SE 16:58:45 10° ENE
Cosmos 1484 Rocket 2.7 16:54:38 10° S 16:58:08 77° WSW 17:01:39 10° NNW
Thor Agena Rocket 3.6 16:54:11 10° SSE 16:59:19 64° ENE 17:04:25 10° N
CZ-4C R/B 3.1 16:53:32 10° NW 17:00:47 85° NE 17:09:39 10° SE
UNK 3.8 16:56:19 10° NNE 17:00:51 58° E 17:05:19 10° S
NOSS 2-3 (D) 3.2 16:59:18 10° SSW 17:03:00 68° SE 17:06:44 10° NE
Cosmos 1743 2.9 16:59:50 10° NNW 17:03:02 58° W 17:06:11 10° S
NOSS 2-3 (E) 3.1 16:59:58 10° SSW 17:03:39 76° SE 17:07:23 10° NE
Cosmos 1354 Rocket 4.0 16:58:53 10° SSW 17:04:09 86° ESE 17:09:26 10° NNE
IGS 5A 3.4 17:01:38 10° S 17:05:35 82° W 17:09:34 10° NNW
Cosmos-2242 4.3 17:04:53 10° SE 17:07:54 19° E 17:10:57 10° NE
USA 238 DEB 3.7 17:02:16 10° SSW 17:08:05 54° ESE 17:14:26 10° NE
USA 238 3.7 17:02:23 10° SSW 17:08:12 53° ESE 17:14:33 10° NE
MOS 1 Rocket 3.9 17:04:25 10° SE 17:08:59 38° ENE 17:13:47 10° N
Cosmos 2151 3.2 17:07:02 10° NNW 17:11:11 73° W 17:15:20 10° S
Cosmos 1898 Rocket 4.4 17:07:39 10° SSE 17:12:01 28° E 17:16:23 10° NE
Gbstr 26 Del rocket 3.4 17:09:03 10° WSW 17:13:09 48° NNW 17:16:29 12° NE
Cosmos 1726 Rocket 3.8 17:08:54 10° S 17:13:24 53° E 17:17:52 10° NNE
AQUARIUS 4.5 17:12:27 10° SE 17:16:35 42° ENE 17:20:45 10° N
SMAP 3.0 17:13:12 10° SSE 17:17:50 79° ENE 17:22:31 10° N
IRIDIUM 104 4.4 17:14:00 10° N 17:19:15 83° W 17:24:28 10° S
Meteor 1-20 Rocket 4.4 17:15:36 10° NNW 17:21:03 73° W 17:26:30 10° S
Cosmos 2084 Rocket 4.4 17:17:26 10° NW 17:21:31 50° WSW 17:25:34 10° SSE
Landsat 7 3.7 17:17:22 10° SSE 17:21:58 67° ENE 17:26:36 10° N
Cosmos 1805 4.3 17:19:46 10° NNE 17:22:06 17° ENE 17:24:25 10° ESE
Cosmos 2297 Rocket 3.6 17:17:53 10° NW 17:23:14 44° WSW 17:28:32 10° S
YAOGAN 1 3.8 17:21:52 10° ESE 17:24:58 20° ENE 17:28:04 10° NNE
GEOS 3 Rocket 3.7 17:19:33 10° NE 17:24:58 87° NW 17:30:20 10° SW
Cosmos 1937 Rocket 4.4 17:23:10 10° SSE 17:27:33 29° E 17:30:51 15° NE
SL-16 R/B 3.9 17:26:50 10° ESE 17:29:15 13° E 17:29:26 13° E
Cosmos 990 Rocket 4.4 17:26:30 10° SSW 17:31:34 65° WNW 17:36:43 10° NNE
Okean 1-7 Rocket 4.1 17:27:48 10° NNW 17:32:08 63° W 17:36:25 10° S
CZ-2D R/B 4.3 17:29:26 10° SE 17:32:58 27° ENE 17:36:28 10° N
COSMOS 2455 3.9 17:31:16 10° SSE 17:36:03 25° ESE 17:38:36 19° ENE
SL-16 R/B 3.7 17:31:06 10° N 17:36:51 41° WNW 17:42:34 10° SW
Okean 1 3.9 17:33:59 10° SSE 17:37:08 29° E 17:38:21 23° NE
SKYMED 2 4.0 17:35:14 12° NNE 17:39:05 41° E 17:43:11 10° S
SJ-6F 4.2 17:39:19 10° SSE 17:43:15 68° ENE 17:47:16 10° N
Cosmos 1980 Rocket 2.1 17:38:16 10° SSW 17:43:55 84° ESE 17:49:21 11° NNE
Aureole 1 Rocket 3.3 17:41:29 10° SSW 17:45:52 81° ESE 17:51:32 10° NNE
Cosmos 1844 Rocket 4.1 17:42:19 10° N 17:45:49 18° NE 17:45:49 18° NE
Cosmos 2219 3.4 17:41:05 10° NNW 17:46:41 50° ENE 17:52:13 10° SE
Meteor 1-26 Rocket 4.2 17:41:56 10° SSE 17:47:07 51° E 17:52:20 10° NNE
PSLV R/B 4.5 17:45:38 10° SE 17:49:59 25° NE 17:52:33 10° N
Cosmos 1953 Rocket 3.5 17:44:40 10° N 17:49:08 82° E 17:53:35 10° S
Helios 1A Rocket 4.3 17:51:44 16° SE 17:51:44 16° SE 17:52:53 10° SSE
ARIANE 5 R/B 2.8 17:45:54 10° S 17:50:55 69° WSW 17:56:04 10° NNW
IRS-1C 4.5 17:47:19 10° S 17:52:36 69° WSW 17:57:56 10° NNW
Cosmos 2263 Rocket 2.1 17:49:12 10° NNW 17:54:54 83° ENE 18:00:36 10° SSE
BREEZE-M DEB (TANK) 2.3 17:52:04 10° WSW 17:56:37 78° SSE 17:57:13 50° ENE
Meteor 1-5 Rocket 4.5 17:54:11 10° NNW 17:59:32 69° W 18:05:01 10° S
BREEZE-M DEB (TANK) 4.2 17:56:05 10° WNW 17:59:51 56° NNE 18:06:53 21° E
Cosmos 1680 Rocket 4.2 17:55:37 10° N 18:00:12 30° ENE 18:00:24 30° ENE
COSMO-SKYMED 1 2.7 17:59:08 33° NE 18:00:24 44° E 18:04:20 10° S
NOAA 6 4.5 17:56:40 10° SE 18:01:17 36° ENE 18:05:54 10° N
Cosmos 2369 3.7 17:55:55 10° SSW 18:01:34 66° ESE 18:05:20 22° NE
Cosmos 1076 Rocket 4.0 17:59:29 10° NNW 18:03:44 62° W 18:07:59 10° S
Meteor 2-10 4.0 17:58:36 10° N 18:04:04 82° E 18:09:41 10° SSE
Cosmos 1655 Rocket 4.4 18:06:39 10° NNW 18:12:47 63° W 18:18:53 10° S
USA 81 4.0 18:07:56 10° N 18:13:14 85° W 18:18:29 10° S
Cosmos 2227 Rocket 3.7 18:09:41 10° NW 18:14:52 39° WSW 18:20:02 10° S
SPOT 1/Viking Rocket 3.5 18:09:46 10° SSE 18:14:59 86° WSW 18:20:13 10° NNW
Cosmos 2058 Rocket 3.6 18:17:47 10° SSW 18:22:12 59° W 18:26:26 11° N
OceanSat 1 rocket 4.5 18:20:01 10° SSE 18:24:40 62° ENE 18:29:19 10° N
USA 308 4.4 18:28:15 10° SSW 18:29:25 19° S 18:29:25 19° S
Cosmos 2333 Rocket 3.4 18:26:22 10° SSE 18:29:34 27° SE 18:29:34 27° SE
Meteor 2-11 Rocket 4.3 18:30:03 10° N 18:36:13 75° E 18:42:21 10° SSE
Meteor 1-14 Rocket 4.5 18:34:42 10° N 18:39:09 48° NNE 18:39:09 48° NNE
Resurs 1-3 3.9 18:37:40 10° S 18:41:55 64° W 18:46:13 10° NNW
Cosmos 2322 Rocket 3.9 18:37:26 10° SSE 18:39:03 18° SSE 18:39:03 18° SSE
USA 59 Rocket 2.3 18:44:35 10° S 18:45:01 12° S 18:45:01 12° S
USA 215 4.3 18:59:28 30° NNE 18:59:28 30° NNE 19:04:53 10° NW
S3M 3.9 18:53:06 10° S 18:59:17 74° ESE 18:59:17 74° ESE
YAOGAN 1 3.9 18:56:35 10° SSW 19:00:33 38° W 19:04:32 10° NNW
Cosmos 2082 4.4 18:58:06 10° NW 19:03:37 52° WSW 19:09:08 10° S
BREEZE-M DEB (TANK) 3.2 18:59:31 10° WSW 19:06:16 79° W 19:06:16 79° W
SL-16 R/B 2.5 19:06:49 10° SSW 19:11:20 59° SSW 19:11:20 59° SSW
Cosmos 1745 Rocket 4.0 19:12:07 10° NNW 19:18:16 74° W 19:24:20 10° S
COSMOS 2455 3.3 19:15:38 10° SW 19:21:32 57° NW 19:21:46 56° NW
Cosmos 1980 Rocket 4.5 19:24:54 10° W 19:28:37 18° NW 19:31:07 14° NNW
Cosmos 1844 Rocket 4.2 19:25:01 10° NNW 19:27:31 27° NNW 19:27:31 27° NNW
